| time (UTC) | temp F | wind direction | speed knots | gust knots | rain 1hr in | rain 24hr in | rain mn in | humidity % | barometer mb |
| 20260504215025 | 80 | 225 | 8.7 | 12.2 | 0.00 | 0.00 | 0.00 | 40 | 1014.6 |
| 20260504214022 | 80 | 175 | 7.0 | 9.6 | 0.00 | 0.00 | 0.00 | 40 | 1014.6 |
| 20260504213025 | 79 | 216 | 7.0 | 10.4 | 0.00 | 0.00 | 0.00 | 41 | 1014.7 |
| 20260504212042 | 79 | 179 | 8.7 | 13.9 | 0.00 | 0.00 | 0.00 | 41 | 1014.7 |
| 20260504211026 | 80 | 232 | 6.1 | 10.4 | 0.00 | 0.00 | 0.00 | 41 | 1014.8 |
| 20260504210022 | 79 | 225 | 8.7 | 12.2 | 0.00 | 0.00 | 0.00 | 41 | 1015.0 |
| 20260504205026 | 80 | 229 | 8.7 | 14.8 | 0.00 | 0.00 | 0.00 | 41 | 1015.0 |
| 20260504204022 | 80 | 199 | 7.0 | 12.2 | 0.00 | 0.00 | 0.00 | 41 | 1015.1 |
| 20260504203027 | 80 | 160 | 9.6 | 16.5 | 0.00 | 0.00 | 0.00 | 40 | 1015.2 |
| 20260504202024 | 80 | 211 | 7.8 | 12.2 | 0.00 | 0.00 | 0.00 | 41 | 1015.4 |
| 20260504201029 | 79 | 244 | 7.0 | 10.4 | 0.00 | 0.00 | 0.00 | 41 | 1015.6 |
| 20260504200023 | 80 | 233 | 7.0 | 11.3 | 0.00 | 0.00 | 0.00 | 40 | 1015.7 |
| 20260504195049 | 80 | 221 | 6.1 | 10.4 | 0.00 | 0.00 | 0.00 | 41 | 1015.9 |
| 20260504194126 | 80 | 236 | 5.2 | 10.4 | 0.00 | 0.00 | 0.00 | 44 | 1015.9 |
| 20260504193153 | 79 | 222 | 6.1 | 8.7 | 0.00 | 0.00 | 0.00 | 44 | 1016.1 |
| 20260504192025 | 80 | 234 | 7.8 | 10.4 | 0.00 | 0.00 | 0.00 | 43 | 1016.2 |
| 20260504191122 | 80 | 229 | 7.0 | 9.6 | 0.00 | 0.00 | 0.00 | 43 | 1016.3 |
| 20260504190036 | 80 | 187 | 6.1 | 8.7 | 0.00 | 0.00 | 0.00 | 44 | 1016.3 |
| 20260504185044 | 80 | 239 | 6.1 | 9.6 | 0.00 | 0.00 | 0.00 | 44 | 1016.5 |
| 20260504184058 | 79 | 132 | 9.6 | 17.4 | 0.00 | 0.00 | 0.00 | 45 | 1016.6 |
| 20260504183022 | 79 | 217 | 6.1 | 8.7 | 0.00 | 0.00 | 0.00 | 46 | 1016.7 |
| 20260504182048 | 78 | 223 | 6.1 | 8.7 | 0.00 | 0.00 | 0.00 | 46 | 1016.9 |
| 20260504181023 | 78 | 253 | 7.0 | 12.2 | 0.00 | 0.00 | 0.00 | 46 | 1017.1 |
| 20260504180028 | 79 | 226 | 8.7 | 11.3 | 0.00 | 0.00 | 0.00 | 44 | 1017.2 |
| 20260504175045 | 78 | 234 | 5.2 | 8.7 | 0.00 | 0.00 | 0.00 | 47 | 1017.3 |
| 20260504174030 | 78 | 229 | 6.1 | 12.2 | 0.00 | 0.00 | 0.00 | 45 | 1017.4 |
| 20260504173025 | 77 | 250 | 6.1 | 10.4 | 0.00 | 0.00 | 0.00 | 46 | 1017.6 |
| 20260504172020 | 78 | 230 | 7.0 | 11.3 | 0.00 | 0.00 | 0.00 | 46 | 1017.7 |
| 20260504171025 | 78 | 268 | 6.1 | 10.4 | 0.00 | 0.00 | 0.00 | 47 | 1017.8 |
| 20260504151022 | 71 | 232 | 7.8 | 11.3 | 0.00 | 0.00 | 0.00 | 57 | 1019.2 |
| 20260504141022 | 66 | 217 | 5.2 | 8.7 | 0.00 | 0.00 | 0.00 | 65 | 1019.7 |
| 20260504081026 | 51 | 0.0 | 0.0 | 0.00 | 0.00 | 0.00 | 79 | 1019.0 | |
| 20260504045044 | 53 | 180 | 0.9 | 1.7 | 0.00 | 0.00 | 0.00 | 77 | 1020.3 |
| 20260504044029 | 53 | 192 | 1.7 | 2.6 | 0.00 | 0.00 | 0.00 | 77 | 1020.3 |
| 20260504043024 | 54 | 193 | 1.7 | 2.6 | 0.00 | 0.00 | 0.00 | 76 | 1020.4 |
| 20260504042020 | 54 | 200 | 1.7 | 2.6 | 0.00 | 0.00 | 0.00 | 75 | 1020.4 |
| 20260504041025 | 53 | 215 | 0.9 | 1.7 | 0.00 | 0.00 | 0.00 | 77 | 1020.4 |
| 20260504040020 | 54 | 178 | 0.0 | 1.7 | 0.00 | 0.00 | 0.00 | 76 | 1020.3 |
| 20260504035026 | 54 | 185 | 0.9 | 2.6 | 0.00 | 0.00 | 0.00 | 76 | 1020.4 |
| 20260504034022 | 54 | 152 | 1.7 | 2.6 | 0.00 | 0.00 | 0.00 | 76 | 1020.5 |
| 20260504033027 | 54 | 180 | 0.9 | 2.6 | 0.00 | 0.00 | 0.00 | 78 | 1020.4 |
| 20260504032022 | 54 | 194 | 0.9 | 2.6 | 0.00 | 0.00 | 0.00 | 77 | 1020.5 |
| 20260504031028 | 54 | 168 | 3.5 | 3.5 | 0.00 | 0.00 | 0.00 | 76 | 1020.6 |
| 20260504030022 | 54 | 163 | 2.6 | 2.6 | 0.00 | 0.00 | 0.00 | 78 | 1020.7 |
| 20260504025028 | 54 | 0.0 | 0.0 | 0.00 | 0.00 | 0.00 | 81 | 1020.7 | |
| 20260504024024 | 54 | 148 | 0.0 | 1.7 | 0.00 | 0.00 | 0.00 | 77 | 1020.7 |
| 20260504023049 | 54 | 149 | 0.9 | 2.6 | 0.00 | 0.00 | 0.00 | 78 | 1020.8 |
| 20260504022024 | 55 | 0.0 | 0.0 | 0.00 | 0.00 | 0.00 | 75 | 1020.7 | |
| 20260504021022 | 56 | 0.0 | 0.0 | 0.00 | 0.00 | 0.00 | 75 | 1020.5 | |
| 20260504020025 | 57 | 0.0 | 0.0 | 0.00 | 0.00 | 0.00 | 71 | 1020.4 | |
| 20260504015024 | 57 | 0.0 | 0.0 | 0.00 | 0.00 | 0.00 | 68 | 1020.2 | |
| 20260504014025 | 58 | 0.0 | 0.0 | 0.00 | 0.00 | 0.00 | 66 | 1020.1 | |
| 20260504013021 | 58 | 0.0 | 0.0 | 0.00 | 0.00 | 0.00 | 66 | 1020.0 | |
| 20260504012026 | 59 | 0.0 | 0.0 | 0.00 | 0.00 | 0.00 | 63 | 1019.8 | |
| 20260504011022 | 60 | 0.0 | 0.0 | 0.00 | 0.00 | 0.00 | 62 | 1019.7 | |
| 20260504010028 | 61 | 137 | 0.0 | 0.9 | 0.00 | 0.00 | 0.00 | 60 | 1019.6 |
| 20260504005022 | 63 | 186 | 0.0 | 1.7 | 0.00 | 0.00 | 0.00 | 58 | 1019.5 |
| 20260504004029 | 64 | 211 | 1.7 | 3.5 | 0.00 | 0.00 | 0.00 | 52 | 1019.4 |
| 20260504003023 | 65 | 222 | 2.6 | 4.3 | 0.00 | 0.00 | 0.00 | 48 | 1019.5 |
| 20260504002028 | 67 | 215 | 1.7 | 1.7 | 0.00 | 0.00 | 0.00 | 45 | 1019.6 |
| 20260504001045 | 69 | 229 | 1.7 | 2.6 | 0.00 | 0.00 | 0.00 | 42 | 1019.6 |
| 20260504000020 | 70 | 229 | 2.6 | 3.5 | 0.00 | 0.00 | 0.00 | 40 | 1019.7 |
| 20260503235147 | 71 | 2.6 | 3.5 | 0.00 | 0.00 | 0.00 | 38 | 1019.8 | |
| 20260503234020 | 71 | 268 | 2.6 | 4.3 | 0.00 | 0.00 | 0.00 | 38 | 1019.8 |
| 20260503233026 | 71 | 308 | 2.6 | 3.5 | 0.00 | 0.00 | 0.00 | 38 | 1019.9 |
| 20260503232133 | 71 | 235 | 4.3 | 6.1 | 0.00 | 0.00 | 0.00 | 37 | 1020.0 |
| 20260503231026 | 72 | 276 | 3.5 | 5.2 | 0.00 | 0.00 | 0.00 | 36 | 1020.1 |
| 20260503230032 | 72 | 271 | 3.5 | 5.2 | 0.00 | 0.00 | 0.00 | 36 | 1020.1 |
| 20260503225108 | 71 | 300 | 5.2 | 7.0 | 0.00 | 0.00 | 0.00 | 36 | 1020.1 |
| 20260503224134 | 72 | 304 | 3.5 | 5.2 | 0.00 | 0.00 | 0.00 | 35 | 1020.1 |
| 20260503223038 | 73 | 299 | 3.5 | 7.8 | 0.00 | 0.00 | 0.00 | 34 | 1020.3 |
| 20260503222119 | 72 | 301 | 2.6 | 6.1 | 0.00 | 0.00 | 0.00 | 35 | 1020.3 |
| 20260503221049 | 72 | 318 | 4.3 | 6.1 | 0.00 | 0.00 | 0.00 | 35 | 1020.4 |
| 20260503220115 | 72 | 278 | 5.2 | 7.8 | 0.00 | 0.00 | 0.00 | 34 | 1020.5 |